Location: Berlin
(42.3812°N, 71.6370°W)
Time: 12:49:53
(UTC+00:00)

SL-16 R/B - Pass Details

Date: 15 November 2025
Orbit: 839 x 848 km, 71.0° (Epoch: 06 December)

Event Time Altitude Azimuth Distance (km) Brightness Sun altitude
Rises 09:36:08 0° 200° (SSW) 3,392 5.2 -22.4°
Reaches altitude 10° 09:38:34 10° 199° (SSW) 2,462 4.5 -22.0°
Maximum altitude 09:44:14 82° 112° (ESE) 860 2.2 -20.9°
Drops below altitude 10° 09:49:56 10° 26° (NNE) 2,479 4.9 -19.9°
Sets 09:52:23 0° 26° (NNE) 3,419 5.6 -19.4°
